OneWeb SL0663

operational
NORAD ID: 55823 Int'l Des: 2023-029 Owner: ONEWEBN Country: UK Constellation: oneweb
LEOCIRCULARPOLARONEWEB_TYPE

Über OneWeb SL0663

Beschreibung wird geladen...

Live-Position

3D-Globus wird geladen...

Nächste Überflüge

Höhenverlauf

Altitude vs Time

uPlot chart will show altitude changes over time

Zweizeiliger Elementsatz

1 55823U 23029AD 25308.10404091 .00000031 00000-0 43172-4 0 9991
2 55823 87.9206 319.3792 0002135 102.9918 257.1454 13.20850117131430
Epoch: 4. Nov. 2025 • Age: 8 hours

Aktueller Status

Höhe 1196.8 km
Geschwindigkeit 7.25 km/s
Subsatellitenpunkt -38.42°S, 66.04°W
Startdatum 9. März 2023
Alter 2.6 years
Typ internet

Technische Details

Klassifizierung Payload
Masse 148.00 kg
Trockenmasse 140.00 kg
Gesamtmasse 148.00 kg
Länge 1.30 m
Durchmesser 1.00 m
Spannweite 5.00 m
Form Trapezoid+2 pan
Hersteller ONEWUS
Bus-Typ ARROW
Phasenstatus In Orbit
Besitzer/Staat ONEWEBN/UK

Große Konstellationen

Loading constellations...